Hourly Weather Rusany

Today, 20 April, Tuesday

Time Temperature Precipitation Wind Pressure Humidity
00:00 +7°C° 0 mm 3 mps 746 mmHg 86%
01:00 +5°C° 0 mm 3 mps 746 mmHg 86%
02:00 +5°C° 0 mm 3 mps 745 mmHg 87%
03:00 +5°C° 0 mm 3 mps 745 mmHg 87%
04:00 +4°C° 0 mm 3 mps 745 mmHg 87%
05:00 +4°C° 0 mm 3 mps 744 mmHg 87%
06:00 +4°C° 0.1 mm 4 mps 744 mmHg 90%
07:00 +4°C° 0.1 mm 4 mps 744 mmHg 92%
08:00 +3°C° 0.1 mm 4 mps 744 mmHg 95%
09:00 +3°C° 0 mm 4 mps 744 mmHg 95%
10:00 +3°C° 0 mm 4 mps 744 mmHg 94%
11:00 +3°C° 0 mm 4 mps 744 mmHg 94%
12:00 +3°C° 0 mm 4 mps 743 mmHg 94%
13:00 +3°C° 0 mm 4 mps 743 mmHg 95%
14:00 +3°C° 0 mm 4 mps 743 mmHg 95%
15:00 +3°C° 0 mm 4 mps 742 mmHg 95%
16:00 +3°C° 0 mm 3 mps 742 mmHg 96%
17:00 +3°C° 0 mm 3 mps 741 mmHg 96%
18:00 +3°C° 0.1 mm 3 mps 741 mmHg 95%
19:00 +3°C° 0.1 mm 3 mps 741 mmHg 94%
20:00 +3°C° 0.1 mm 4 mps 741 mmHg 93%
21:00 +3°C° 0 mm 3 mps 740 mmHg 93%
22:00 +3°C° 0 mm 3 mps 740 mmHg 92%
23:00 +3°C° 0 mm 3 mps 739 mmHg 91%

Tomorrow, 21 April, Wednesday

Time Temperature Precipitation Wind Pressure Humidity
00:00 +3°C° 0 mm 3 mps 739 mmHg 91%
01:00 +3°C° 0 mm 3 mps 739 mmHg 90%
02:00 +3°C° 0 mm 3 mps 738 mmHg 90%
03:00 +2°C° 0 mm 3 mps 738 mmHg 90%
04:00 +2°C° 0 mm 3 mps 738 mmHg 89%
05:00 +2°C° 0 mm 3 mps 737 mmHg 89%
06:00 +3°C° 0 mm 3 mps 737 mmHg 86%
07:00 +3°C° 0 mm 3 mps 737 mmHg 83%
08:00 +3°C° 0 mm 4 mps 737 mmHg 80%
09:00 +4°C° 0 mm 4 mps 737 mmHg 77%
10:00 +5°C° 0 mm 4 mps 737 mmHg 73%
11:00 +6°C° 0 mm 4 mps 737 mmHg 70%
12:00 +6°C° 0.1 mm 4 mps 737 mmHg 68%
13:00 +7°C° 0.1 mm 4 mps 737 mmHg 67%
14:00 +7°C° 0.1 mm 4 mps 737 mmHg 66%
15:00 +7°C° 0.1 mm 4 mps 738 mmHg 66%
16:00 +7°C° 0.1 mm 4 mps 738 mmHg 67%
17:00 +8°C° 0.1 mm 3 mps 738 mmHg 67%
18:00 +7°C° 0 mm 3 mps 738 mmHg 71%
19:00 +7°C° 0 mm 3 mps 738 mmHg 74%
20:00 +6°C° 0 mm 2 mps 739 mmHg 78%
21:00 +5°C° 0 mm 3 mps 739 mmHg 79%
22:00 +4°C° 0 mm 3 mps 739 mmHg 80%
23:00 +4°C° 0 mm 3 mps 739 mmHg 81%

Day after tomorrow, 22 April, Thursday

Time Temperature Precipitation Wind Pressure Humidity
00:00 +4°C° 0 mm 3 mps 739 mmHg 82%
01:00 +4°C° 0 mm 3 mps 739 mmHg 82%
02:00 +4°C° 0 mm 3 mps 739 mmHg 82%
03:00 +4°C° 0 mm 3 mps 739 mmHg 83%
04:00 +4°C° 0 mm 3 mps 740 mmHg 84%
05:00 +4°C° 0 mm 3 mps 740 mmHg 85%
06:00 +5°C° 0 mm 4 mps 740 mmHg 84%
07:00 +6°C° 0 mm 4 mps 740 mmHg 83%
08:00 +6°C° 0 mm 4 mps 740 mmHg 82%
09:00 +8°C° 0.1 mm 5 mps 740 mmHg 77%
10:00 +9°C° 0.1 mm 5 mps 741 mmHg 71%
11:00 +11°C° 0.1 mm 6 mps 741 mmHg 65%
12:00 +11°C° 0.6 mm 6 mps 740 mmHg 64%
13:00 +13°C° 0.6 mm 6 mps 740 mmHg 63%
14:00 +13°C° 0.6 mm 6 mps 740 mmHg 61%
15:00 +13°C° 0.6 mm 5 mps 740 mmHg 64%
16:00 +13°C° 0.6 mm 5 mps 740 mmHg 67%
17:00 +13°C° 0.6 mm 4 mps 740 mmHg 69%
18:00 +11°C° 0.2 mm 4 mps 740 mmHg 75%
19:00 +10°C° 0.2 mm 3 mps 740 mmHg 80%
20:00 +8°C° 0.2 mm 3 mps 740 mmHg 85%
21:00 +8°C° 0 mm 3 mps 740 mmHg 87%
22:00 +7°C° 0 mm 2 mps 740 mmHg 88%
23:00 +7°C° 0 mm 2 mps 740 mmHg 89%

23 April, Friday

Time Temperature Precipitation Wind Pressure Humidity
00:00 +7°C° 0 mm 3 mps 739 mmHg 89%
01:00 +6°C° 0 mm 4 mps 739 mmHg 90%
02:00 +6°C° 0 mm 5 mps 739 mmHg 90%
03:00 +6°C° 0 mm 4 mps 739 mmHg 91%
04:00 +5°C° 0 mm 4 mps 740 mmHg 91%
05:00 +4°C° 0 mm 3 mps 741 mmHg 91%
06:00 +5°C° 0 mm 3 mps 741 mmHg 85%
07:00 +5°C° 0 mm 3 mps 741 mmHg 79%
08:00 +6°C° 0 mm 4 mps 741 mmHg 72%
09:00 +5°C° 0.2 mm 4 mps 741 mmHg 73%
10:00 +5°C° 0.2 mm 4 mps 742 mmHg 73%
11:00 +5°C° 0.2 mm 5 mps 742 mmHg 74%
12:00 +5°C° 0.3 mm 4 mps 742 mmHg 71%
13:00 +5°C° 0.3 mm 4 mps 742 mmHg 68%
14:00 +5°C° 0.3 mm 4 mps 741 mmHg 66%
15:00 +7°C° 0.1 mm 3 mps 741 mmHg 66%
16:00 +7°C° 0.1 mm 3 mps 741 mmHg 66%
17:00 +7°C° 0.1 mm 3 mps 741 mmHg 66%
18:00 +5°C° 0 mm 3 mps 741 mmHg 70%
19:00 +4°C° 0 mm 3 mps 741 mmHg 75%
20:00 +4°C° 0 mm 3 mps 741 mmHg 80%
21:00 +3°C° 0 mm 3 mps 741 mmHg 83%
22:00 +2°C° 0 mm 3 mps 740 mmHg 86%
23:00 +2°C° 0 mm 3 mps 740 mmHg 89%

24 April, Saturday

Time Temperature Precipitation Wind Pressure Humidity
00:00 +1°C° 0 mm 3 mps 740 mmHg 90%
01:00 +1°C° 0 mm 3 mps 740 mmHg 91%
02:00 0°C° 0 mm 3 mps 740 mmHg 92%
03:00 0°C° 0 mm 3 mps 740 mmHg 94%
04:00 0°C° 0 mm 3 mps 740 mmHg 95%
05:00 -1°C° 0 mm 3 mps 740 mmHg 97%
06:00 0°C° 0.1 mm 3 mps 740 mmHg 89%
07:00 0°C° 0.1 mm 4 mps 740 mmHg 82%
08:00 0°C° 0.1 mm 4 mps 740 mmHg 74%
09:00 +1°C° 0 mm 5 mps 740 mmHg 71%
10:00 +1°C° 0 mm 5 mps 740 mmHg 68%
11:00 +1°C° 0 mm 5 mps 741 mmHg 65%
12:00 +2°C° 0.1 mm 5 mps 740 mmHg 62%
13:00 +2°C° 0.1 mm 5 mps 740 mmHg 59%
14:00 +3°C° 0.1 mm 5 mps 740 mmHg 56%
15:00 +3°C° 0.3 mm 5 mps 740 mmHg 57%
16:00 +3°C° 0.3 mm 5 mps 740 mmHg 58%
17:00 +3°C° 0.3 mm 5 mps 740 mmHg 60%
18:00 +3°C° 0.1 mm 4 mps 740 mmHg 65%
19:00 +2°C° 0.1 mm 3 mps 740 mmHg 71%
20:00 +1°C° 0.1 mm 3 mps 740 mmHg 77%
21:00 +1°C° 0 mm 3 mps 740 mmHg 79%
22:00 0°C° 0 mm 3 mps 740 mmHg 82%
23:00 0°C° 0 mm 3 mps 740 mmHg 85%

25 April, Sunday

Time Temperature Precipitation Wind Pressure Humidity
00:00 -1°C° 0 mm 3 mps 740 mmHg 87%
01:00 -1°C° 0 mm 3 mps 740 mmHg 89%
02:00 -1°C° 0 mm 3 mps 740 mmHg 90%
03:00 -2°C° 0 mm 3 mps 740 mmHg 89%
04:00 -3°C° 0 mm 4 mps 740 mmHg 87%
05:00 -3°C° 0 mm 4 mps 741 mmHg 86%
06:00 -2°C° 0 mm 4 mps 741 mmHg 80%
07:00 -1°C° 0 mm 5 mps 741 mmHg 74%
08:00 0°C° 0 mm 5 mps 741 mmHg 68%
09:00 -1°C° 0.2 mm 6 mps 740 mmHg 64%
10:00 +1°C° 0.2 mm 6 mps 740 mmHg 60%
11:00 +2°C° 0.2 mm 7 mps 740 mmHg 56%
12:00 +3°C° 0.3 mm 7 mps 740 mmHg 57%
13:00 +3°C° 0.3 mm 7 mps 739 mmHg 59%
14:00 +3°C° 0.3 mm 7 mps 739 mmHg 60%
15:00 +3°C° 0.3 mm 7 mps 739 mmHg 64%
16:00 +2°C° 0.3 mm 6 mps 739 mmHg 68%
17:00 +2°C° 0.3 mm 6 mps 739 mmHg 72%
18:00 +1°C° 0.1 mm 6 mps 739 mmHg 75%
19:00 +1°C° 0.1 mm 5 mps 739 mmHg 78%
20:00 0°C° 0.1 mm 5 mps 739 mmHg 81%
21:00 0°C° 0.2 mm 5 mps 739 mmHg 85%
22:00 -2°C° 0.2 mm 6 mps 739 mmHg 89%
23:00 -2°C° 0.2 mm 6 mps 739 mmHg 93%
Show more